BAW255T EGLL-TBPB

Flight info

Callsign BAW255T
Flight time N/A
Altitude 34000
Route GASGU N514 ADKIK DCT JOZMA DCT ARKIL/M083F340 DCT SOMAX DCT 4830N02000W 44N030W 38N040W/M083F360 3330N04500W 28N050W 20N055W DCT FISST/N0476F360 DCT BGI
Aircraft B77W/H-SDE1E2E3FGHIJ2J3J4J5M1RWXY/LB1D1

Departure

Time N/A
Airport London Heathrow Airport (EGLL)

Arrival

Time 2026-05-04 16:41
Airport Grantley Adams International Airport (TBPB)
Time Latitude Longitude Altitude Speed Heading
2026-05-04 16:20 14.32390 -58.61921 36046 ft 481 kts 217°
2026-05-04 16:20 14.26778 -58.65830 36048 ft 481 kts 216°
2026-05-04 16:22 14.12861 -58.75516 36055 ft 481 kts 216°
2026-05-04 16:22 14.04409 -58.81393 36057 ft 494 kts 216°
2026-05-04 16:23 13.95854 -58.87333 36057 ft 488 kts 217°
2026-05-04 16:25 13.78887 -58.99101 36025 ft 489 kts 217°
2026-05-04 16:26 13.67479 -59.07000 32893 ft 487 kts 217°
2026-05-04 16:26 13.59238 -59.12704 30065 ft 468 kts 218°
2026-05-04 16:27 13.54602 -59.17281 27929 ft 459 kts 236°
2026-05-04 16:28 13.50023 -59.25725 24786 ft 451 kts 244°
2026-05-04 16:28 13.45850 -59.34224 21585 ft 440 kts 244°
2026-05-04 16:29 13.40468 -59.45251 17272 ft 428 kts 244°
2026-05-04 16:30 13.36582 -59.53381 14086 ft 418 kts 244°
2026-05-04 16:31 13.34148 -59.58668 12203 ft 406 kts 244°
2026-05-04 16:31 13.30651 -59.66378 9601 ft 384 kts 244°
2026-05-04 16:32 13.25586 -59.72030 7466 ft 355 kts 205°
2026-05-04 16:33 13.21276 -59.74273 6318 ft 335 kts 204°
2026-05-04 16:33 13.17196 -59.76219 5368 ft 308 kts 189°
2026-05-04 16:34 13.13172 -59.75898 4548 ft 279 kts 164°
2026-05-04 16:34 13.11281 -59.75476 4185 ft 270 kts 164°
2026-05-04 16:35 13.05889 -59.74278 3098 ft 260 kts 164°
2026-05-04 16:35 13.01193 -59.72858 2965 ft 206 kts 131°
2026-05-04 16:36 13.00530 -59.71621 2964 ft 197 kts 97°
2026-05-04 16:36 13.01467 -59.69393 2976 ft 198 kts 49°
2026-05-04 16:37 13.02631 -59.68063 2980 ft 195 kts 62°
2026-05-04 16:37 13.03153 -59.66775 2981 ft 196 kts 75°
2026-05-04 16:37 13.03809 -59.64061 2677 ft 194 kts 77°
2026-05-04 16:38 13.04420 -59.61541 2217 ft 168 kts 77°
2026-05-04 16:39 13.05191 -59.58405 1641 ft 139 kts 78°
2026-05-04 16:39 13.05674 -59.56490 1296 ft 138 kts 78°
2026-05-04 16:40 13.06149 -59.54571 885 ft 139 kts 77°
2026-05-04 16:40 13.06629 -59.52628 569 ft 142 kts 77°
2026-05-04 16:41 13.07106 -59.50684 216 ft 139 kts 78°
2026-05-04 16:41 13.07551 -59.48864 182 ft 34 kts 76°
2026-05-04 16:42 13.07643 -59.48489 182 ft 13 kts 75°
2026-05-04 16:43 13.07713 -59.48343 182 ft 10 kts
2026-05-04 16:43 13.07843 -59.48382 182 ft 8 kts 306°
2026-05-04 16:43 13.07846 -59.48444 182 ft 9 kts 259°
2026-05-04 16:44 13.07807 -59.48613 182 ft 2 kts 256°
2026-05-04 16:45 13.07802 -59.48666 182 ft 3 kts 307°
2026-05-04 16:46 13.07879 -59.48687 182 ft 1 kts 346°
2026-05-04 16:46 13.07883 -59.48688 182 ft 0 kts 346°